sat.trackr.live / text

‹ back to catalog

STARLINK-31737

NORAD 59537 · 2024-074D

PAYLOAD ACTIVE UNKNOWN

§ Identity

Operator
Country
US
Launch date
2024-04-18
Launch site
AFETR
Launch vehicle
Mass (kg)
RCS (m²)

Purposes: comms

External: N2YO · Heavens-Above · Gunter

§ Orbital elements

Epoch: 2026-09-21T10:43:06.950208Z

Period
94.27 min
Inclination
43.0029°
Eccentricity
0.0001227
Mean motion
15.27580810 rev/d
Perigee alt
482.2 km
Apogee alt
483.9 km
Semi-major
6,861.2 km
B*
2.7195e-5
RAAN
317.9225°
Arg perigee
273.0704°
Mean anomaly
87.0008°
Rev number
13,595

§ Raw data

STARLINK-317371 59537U 24074D   26264.44660822  .00000486  00000+0  27195-4 0  99932 59537  43.0029 317.9225 0001227 273.0704  87.0008 15.27580810135956

JSON: /api/v1/satellites/59537 · /tle

For live sub-satellite position, see the globe view (requires WebGL).

§ Visibility from observer

Set your observer location to see the next 7 days of passes ≥ 10°. The values pass through the URL so the page stays shareable.

No JS? Fill the form by hand. The geolocation button needs JavaScript.